Lexington Weather

Lexington, Massachusetts, USA

78°F
7/25/2024 12:01pm 
  • Lexington Conditions: Mostly cloudy
  • Temperature: 77.7°F / 25.4°CWarmer 1.4°F than last hour.
  • Dew Point: 72.5°FIncreased 0.7°Fsince last hour.
  • Relative Humidity: 84%Decreased 2.0% since last hour.
  • Wind: Wind from SW SW Calm, 10-min avg: 2 mph, gust: 5 mph
  • Barometer: 29.94 inFalling 0.02  inHg/hr Falling Slowly
  • Visibility: 10 miles
  • Rain Today: 0.00 in
  •   

Regional Weather Roundup
for Boston, MA

        
000
ASUS41 KBOX 230110
RWRBOX

REGIONAL WEATHER ROUNDUP
NATIONAL WEATHER SERVICE BOSTON/NORTON MA
900 PM EDT MON JUL 22 2024

NOTE:  "FAIR" INDICATES FEW OR NO CLOUDS BELOW 12,000 FEET WITH NO 
SIGNIFICANT WEATHER AND/OR OBSTRUCTIONS TO VISIBILITY.

MAZALL-230200-
EASTERN MASSACHUSETTS
  
CITY           SKY/WX    TMP DP  RH WIND       PRES   REMARKS
BOSTON         CLOUDY    77  64  64 SW8       30.04R                  
BEVERLY        CLOUDY    78  68  71 SW9       30.03R                  
LAWRENCE       CLOUDY    79  69  71 SW9       30.05R                  
BEDFORD        CLOUDY    76  66  71 SW7       30.03R                  
NORWOOD        CLOUDY    76  68  76 S6        30.05R                  
MARSHFIELD     CLOUDY    75  66  73 SW7       30.05R                  
PLYMOUTH       CLOUDY    75  69  81 S3        30.06R                  
TAUNTON        CLOUDY    77  69  76 CALM      30.06R                  
NEW BEDFORD    CLOUDY    76  74  93 S5        30.06R                  
$$

MAZALL-230200-
CAPE COD AND THE ISLANDS
  
CITY           SKY/WX    TMP DP  RH WIND       PRES   REMARKS
FALMOUTH       PTCLDY    75  72  88 S6        30.06S                  
HYANNIS        CLOUDY    75  72  90 SW10      30.07R                  
CHATHAM        CLOUDY    76  73  91 SW8       30.08S                  
PROVINCETOWN   CLOUDY    73  71  93 SW9       30.07R                  
NANTUCKET      CLOUDY    72  71  97 S9        30.08S                  
MARTHAS VNYRD  CLOUDY    74  72  93 S9        30.07R                  
$$
 
MAZALL-230200-
CENTRAL AND WESTERN MASSACHUSETTS
  
CITY           SKY/WX    TMP DP  RH WIND       PRES   REMARKS
WORCESTER      CLOUDY    74  65  73 SW8       30.08R                  
FITCHBURG      CLOUDY    78  67  68 S6        30.05R                  
ORANGE           N/A     76  67  73 S12       30.06R                  
SPRINGFIELD    CLOUDY    75  67  76 S6        30.01R                  
WESTFIELD      MOCLDY    75  69  81 S7        30.03R                  
NORTH ADAMS    MOCLDY    76  66  71 CALM      30.03R                  
PITTSFIELD     MOCLDY    72  66  81 S6        30.05S                  
$$
 
RIZALL-230200-
RHODE ISLAND
  
CITY           SKY/WX    TMP DP  RH WIND       PRES   REMARKS
PROVIDENCE     CLOUDY    75  72  90 S8        30.06R                  
NEWPORT        CLOUDY    73  72  96 S7        30.07R                  
BLOCK ISLAND   CLOUDY    74  71  91 S8          N/A                   
SMITHFIELD     CLOUDY    73  70  90 SW3       30.07R                  
WESTERLY       CLOUDY    74  71  91 S7        30.06R                  
$$
 
CTZALL-230200-
CONNECTICUT
  
CITY           SKY/WX    TMP DP  RH WIND       PRES   REMARKS
BRADLEY INTL   MOCLDY    78  68  71 S7        30.03S                  
HARTFORD       CLOUDY    76  70  82 SE3       30.03R                  
PLAINVILLE     CLOUDY    75  70  84 CALM      30.03S                  
BRIDGEPORT     CLOUDY    77  71  82 SE6       30.02S                  
DANBURY        CLOUDY    76  70  82 CALM      30.04S                  
GROTON         CLOUDY    75  73  93 SE7       30.05R                  
NEW HAVEN      CLOUDY    79  74  84 SE5       30.03S                  
CHESTER        CLOUDY    75  75 100 CALM      30.06R                  
MERIDEN        CLOUDY    77  68  73 CALM      30.03R                  
WILLIMANTIC    CLOUDY    74  69  85 S3        30.05R                  
OXFORD         CLOUDY    73  70  90 SE6       30.06S                  
$$

MEZ002-015-021-024-NHZ003-005-008-011-012-014-VTZ005-008-230200-
NORTHERN NEW ENGLAND
  
CITY           SKY/WX    TMP DP  RH WIND       PRES   REMARKS
PORTLAND ME    MOCLDY    70  65  84 S8        30.04R                  
BANGOR ME      PTCLDY    69  60  73 S6        30.04R                  
CONCORD NH     MOCLDY    75  65  70 SE3       30.02R                  
MANCHESTER NH  MOCLDY    80  67  64 S6        30.02R                  
NASHUA NH      MOCLDY    78  72  81 CALM      30.04R                  
PORTSMOUTH NH  MOCLDY    71  67  87 CALM      30.02R                  
JAFFREY NH     MOCLDY    76  68  76 S8        30.07R                  
KEENE NH       MOCLDY    76  69  79 S7        30.03R                  
BURLINGTON VT  CLOUDY    78  63  59 SE6       29.98S                  
MT. WASHINGTON MOCLDY    52  46  82 W16         N/A                   
$$

NYZ052-076-230200-
EASTERN NEW YORK
  
CITY           SKY/WX    TMP DP  RH WIND       PRES   REMARKS
ALBANY         CLOUDY    77  65  66 S8        30.01R                  
NEW YORK CITY  LGT RAIN  78  71  79 S9        30.00S                  
$$
 
ANZALL-230200-
MARINE OBSERVATIONS
  
STATION/POSITION TIME  TEMP    WIND        PRES    VSBY  WAVE
                       AIR SEA DIR/SP/G                  HT/PER
                 (UTC) (F)     (DEG/KT/KT) (MB)    (MI)  (FT/S)
BOSTON BUOY      0050   70 67  180/  8/ 10 1017.7R         1/ 9
BUZZARDS BAY     0000   74     190/ 11/ 12 1017.9F
NANTUCKET SOUND  0050   75 76  190/ 12/ 14 1018.0R         1/ 2
MASS BAY-STELLWA 2304   71 64  200/ 10/ 12 1016.9F  1 7/8  1/11
ISLE OF SHOALS   0000   70     150/ 13/ 13 1015.8S
S OF BLOCK IS    0056      74                N/A           2/ 9
$$

......................KEY.........................
  SKY/WX - SKY CONDITION/PRESENT WEATHER
  TMP    - TEMPERATURE IN FAHRENHEIT
  DWPT   - DEWPOINT IN FAHRENHEIT
  RH     - RELATIVE HUMIDITY IN PERCENT
  WIND   - DIRECTION AND SPEED IN MPH
  PRES   - MEAN SEA LEVEL PRESSURE IN INCHES OF HG
  WCI    - WIND CHILL INDEX
  VSB    - VISIBILITY IN MILES
  HX     - HEAT INDEX
  TC     - TEMPERATURE IN CELSIUS
  VRB    - VARIABLE WIND DIRECTION
  N/A    - NOT AVAILABLE
  
      

Other recent Regional Weather Roundups

Thu Jul 25, 11:10am EDT

Thu Jul 25, 10:10am EDT

Thu Jul 25, 9:10am EDT

Thu Jul 25, 8:10am EDT

Thu Jul 25, 7:10am EDT

Thu Jul 25, 6:10am EDT

Thu Jul 25, 5:10am EDT

Thu Jul 25, 4:10am EDT

Thu Jul 25, 3:10am EDT

Thu Jul 25, 2:10am EDT

Thu Jul 25, 1:10am EDT

Thu Jul 25, 12:10am EDT

Wed Jul 24, 11:10pm EDT

Wed Jul 24, 10:10pm EDT

Wed Jul 24, 9:10pm EDT

Wed Jul 24, 8:10pm EDT

Wed Jul 24, 7:10pm EDT

Wed Jul 24, 6:10pm EDT

Wed Jul 24, 5:10pm EDT

Wed Jul 24, 4:10pm EDT

Wed Jul 24, 3:10pm EDT

Wed Jul 24, 2:10pm EDT

Wed Jul 24, 1:10pm EDT

Wed Jul 24, 12:10pm EDT

Wed Jul 24, 11:10am EDT

Wed Jul 24, 10:10am EDT

Wed Jul 24, 9:10am EDT

Wed Jul 24, 8:10am EDT

Wed Jul 24, 7:10am EDT

Wed Jul 24, 6:10am EDT

Wed Jul 24, 5:10am EDT

Wed Jul 24, 4:10am EDT

Wed Jul 24, 3:10am EDT

Wed Jul 24, 2:10am EDT

Wed Jul 24, 1:10am EDT

Wed Jul 24, 12:10am EDT

Tue Jul 23, 11:10pm EDT

Tue Jul 23, 10:10pm EDT

Tue Jul 23, 9:10pm EDT

Tue Jul 23, 8:10pm EDT

Tue Jul 23, 7:10pm EDT

Tue Jul 23, 6:10pm EDT

Tue Jul 23, 5:10pm EDT

Tue Jul 23, 4:10pm EDT

Tue Jul 23, 3:10pm EDT

Tue Jul 23, 2:10pm EDT

Tue Jul 23, 1:10pm EDT

Tue Jul 23, 12:10pm EDT

Tue Jul 23, 11:10am EDT

Tue Jul 23, 10:10am EDT

Tue Jul 23, 10:10am EDT

Tue Jul 23, 9:10am EDT

Tue Jul 23, 8:10am EDT

Tue Jul 23, 7:10am EDT

Tue Jul 23, 6:10am EDT

Tue Jul 23, 5:10am EDT

Tue Jul 23, 4:10am EDT

Tue Jul 23, 3:10am EDT

Tue Jul 23, 2:10am EDT

Tue Jul 23, 1:10am EDT

Tue Jul 23, 12:10am EDT

Mon Jul 22, 11:10pm EDT

Mon Jul 22, 10:10pm EDT

Mon Jul 22, 8:10pm EDT

Mon Jul 22, 7:10pm EDT

Mon Jul 22, 6:10pm EDT

Mon Jul 22, 5:10pm EDT

Mon Jul 22, 4:10pm EDT

Mon Jul 22, 3:10pm EDT

Mon Jul 22, 2:10pm EDT

Mon Jul 22, 1:10pm EDT

Mon Jul 22, 12:10pm EDT

Mon Jul 22, 11:10am EDT

Mon Jul 22, 10:10am EDT

Mon Jul 22, 9:10am EDT

Mon Jul 22, 8:10am EDT

Mon Jul 22, 7:10am EDT

Mon Jul 22, 6:10am EDT

Mon Jul 22, 5:10am EDT

Mon Jul 22, 4:10am EDT

Mon Jul 22, 3:10am EDT

Mon Jul 22, 2:10am EDT

Mon Jul 22, 1:10am EDT

Mon Jul 22, 12:10am EDT

Sun Jul 21, 11:10pm EDT

Sun Jul 21, 10:10pm EDT

Sun Jul 21, 9:10pm EDT

Sun Jul 21, 8:10pm EDT

Sun Jul 21, 7:10pm EDT

Sun Jul 21, 6:10pm EDT

Sun Jul 21, 5:10pm EDT

Sun Jul 21, 4:10pm EDT

Sun Jul 21, 3:10pm EDT

Sun Jul 21, 2:10pm EDT

Sun Jul 21, 1:10pm EDT

Sun Jul 21, 12:10pm EDT

Sun Jul 21, 11:10am EDT

Sun Jul 21, 10:10am EDT

Sun Jul 21, 9:10am EDT

Sun Jul 21, 8:10am EDT

Sun Jul 21, 7:10am EDT

Sun Jul 21, 6:10am EDT

Sun Jul 21, 5:10am EDT

Sun Jul 21, 4:10am EDT

Sun Jul 21, 3:10am EDT

Sun Jul 21, 2:10am EDT

Sun Jul 21, 1:10am EDT

Sun Jul 21, 12:10am EDT

Sat Jul 20, 11:10pm EDT

Sat Jul 20, 10:10pm EDT

Sat Jul 20, 9:10pm EDT

Sat Jul 20, 8:10pm EDT

Sat Jul 20, 7:10pm EDT

Sat Jul 20, 6:10pm EDT

Sat Jul 20, 5:10pm EDT

Sat Jul 20, 4:10pm EDT

Sat Jul 20, 3:10pm EDT

Sat Jul 20, 2:10pm EDT

Sat Jul 20, 1:10pm EDT

Sat Jul 20, 12:10pm EDT

Sat Jul 20, 11:10am EDT

Sat Jul 20, 10:10am EDT

Sat Jul 20, 9:10am EDT

Sat Jul 20, 8:10am EDT

Sat Jul 20, 7:10am EDT

Sat Jul 20, 6:10am EDT

Sat Jul 20, 5:10am EDT

Sat Jul 20, 4:10am EDT

Sat Jul 20, 3:10am EDT

Sat Jul 20, 2:10am EDT

Sat Jul 20, 1:10am EDT

Sat Jul 20, 12:10am EDT

Fri Jul 19, 11:10pm EDT

Fri Jul 19, 10:10pm EDT

Fri Jul 19, 9:10pm EDT

Fri Jul 19, 8:10pm EDT

Fri Jul 19, 7:10pm EDT

Fri Jul 19, 6:10pm EDT

Fri Jul 19, 5:10pm EDT

Fri Jul 19, 4:10pm EDT

Fri Jul 19, 3:10pm EDT

Fri Jul 19, 2:10pm EDT

Fri Jul 19, 1:10pm EDT

Fri Jul 19, 12:10pm EDT

Fri Jul 19, 11:10am EDT

Fri Jul 19, 10:10am EDT

Fri Jul 19, 9:10am EDT

Fri Jul 19, 8:10am EDT

Fri Jul 19, 7:10am EDT

Fri Jul 19, 6:10am EDT

Fri Jul 19, 5:10am EDT

Fri Jul 19, 4:10am EDT

Fri Jul 19, 3:10am EDT

Fri Jul 19, 2:10am EDT

Fri Jul 19, 1:10am EDT

Fri Jul 19, 12:10am EDT

Thu Jul 18, 11:10pm EDT

Thu Jul 18, 10:10pm EDT

Thu Jul 18, 9:10pm EDT

Thu Jul 18, 8:10pm EDT

Thu Jul 18, 7:10pm EDT

Thu Jul 18, 6:10pm EDT

Thu Jul 18, 5:10pm EDT

Thu Jul 18, 4:10pm EDT

Thu Jul 18, 3:10pm EDT

Thu Jul 18, 2:10pm EDT

Thu Jul 18, 1:10pm EDT

Thu Jul 18, 12:10pm EDT